1992-01-01 03:00:00,-1.66,-1.71
1992-01-01 06:00:00,-3.61,-3.58
1992-01-01 09:00:00,-4.88,-4.87
1992-01-01 12:00:00,-7.85,-7.67
1992-01-01 15:00:00,-7.87,-7.73
1992-01-01 18:00:00,-9.07,-8.89
1992-01-01 21:00:00,-10.02,-9.84
1992-01-02 00:00:00,-9.15,-9.04
1992-01-02 03:00:00,-5.26,-5.34
1992-01-02 06:00:00,-5.59,-5.54
1992-01-02 09:00:00,-7.05,-6.95
1992-01-02 12:00:00,-7.51,-7.43
1992-01-02 15:00:00,-7.99,-7.92
1992-01-02 18:00:00,-8.14,-8.06
1992-01-02 21:00:00,-9.18,-9.08
1992-01-03 00:00:00,-9.34,-9.20
1992-01-03 03:00:00,-12.01,-11.88
1992-01-03 06:00:00,-11.85,-11.79
1992-01-03 09:00:00,-11.76,-11.64
1992-01-03 12:00:00,-10.67,-10.57
1992-01-03 15:00:00,-11.27,-11.20
1992-01-03 18:00:00,-10.22,-10.15
1992-01-03 21:00:00,-10.35,-10.26
1992-01-04 00:00:00,-8.88,-8.85
1992-01-04 03:00:00,-9.19,-9.13
1992-01-04 06:00:00,-7.26,-7.17
1992-01-04 09:00:00,-7.56,-7.46
1992-01-04 12:00:00,-7.86,-7.74
1992-01-04 15:00:00,-8.39,-8.34
1992-01-04 18:00:00,-8.40,-8.31
1992-01-04 21:00:00,-8.56,-8.50
1992-01-05 00:00:00,-8.89,-8.78
1992-01-05 03:00:00,-8.99,-8.89
1992-01-05 06:00:00,-9.48,-9.36
1992-01-05 09:00:00,-11.19,-11.04
1992-01-05 12:00:00,-13.11,-12.98
1992-01-05 15:00:00,-11.70,-11.78
1992-01-05 18:00:00,-8.79,-8.79
1992-01-05 21:00:00,-7.76,-7.70
1992-01-06 00:00:00,-6.95,-6.88
1992-01-06 03:00:00,-6.77,-6.70
1992-01-06 06:00:00,-7.08,-6.98
1992-01-06 09:00:00,-7.32,-7.28
1992-01-06 12:00:00,-7.66,-7.60
1992-01-06 15:00:00,-8.14,-8.08
1992-01-06 18:00:00,-8.57,-8.50
1992-01-06 21:00:00,-10.08,-9.90
1992-01-07 00:00:00,-13.41,-13.25
1992-01-07 03:00:00,-14.62,-14.49
1992-01-07 06:00:00,-14.99,-14.82
1992-01-07 09:00:00,-15.28,-15.15
1992-01-07 12:00:00,-15.52,-15.35
1992-01-07 15:00:00,-15.10,-14.98
1992-01-07 18:00:00,-15.87,-15.66
1992-01-07 21:00:00,-13.79,-13.71
1992-01-08 00:00:00,-11.53,-11.57
1992-01-08 03:00:00,-10.88,-10.74
1992-01-08 06:00:00,-11.89,-11.79
1992-01-08 09:00:00,-13.31,-13.21
1992-01-08 12:00:00,-13.55,-13.40
1992-01-08 15:00:00,-13.01,-12.79
1992-01-08 18:00:00,-14.26,-14.16
1992-01-08 21:00:00,-14.76,-14.42
1992-01-09 00:00:00,-16.22,-16.05
1992-01-09 03:00:00,-15.47,-15.32
1992-01-09 06:00:00,-14.10,-13.91
1992-01-09 09:00:00,-14.37,-14.19
1992-01-09 12:00:00,-13.44,-13.35
1992-01-09 15:00:00,-13.73,-13.67
1992-01-09 18:00:00,-16.60,-16.36
1992-01-09 21:00:00,-17.10,-16.96
1992-01-10 00:00:00,-15.99,-15.86
1992-01-10 03:00:00,-15.82,-15.59
1992-01-10 06:00:00,-16.58,-16.33
1992-01-10 09:00:00,-13.64,-13.57
1992-01-10 12:00:00,-12.81,-12.67
1992-01-10 15:00:00,-13.58,-13.20
1992-01-10 18:00:00,-14.31,-14.01
1992-01-10 21:00:00,-8.69,-9.18
1992-01-11 00:00:00,-3.59,-3.67
1992-01-11 03:00:00,-4.49,-4.41
1992-01-11 06:00:00,-6.90,-6.75
1992-01-11 09:00:00,-8.54,-8.37
1992-01-11 12:00:00,-9.76,-9.43
1992-01-11 15:00:00,-8.76,-8.68
1992-01-11 18:00:00,-8.34,-8.25
1992-01-11 21:00:00,-7.72,-7.67
1992-01-12 00:00:00,-6.75,-6.70
1992-01-12 03:00:00,-5.87,-5.81
1992-01-12 06:00:00,-8.00,-7.59
1992-01-12 09:00:00,-9.71,-9.53
1992-01-12 12:00:00,-11.49,-11.28
1992-01-12 15:00:00,-12.58,-12.38
1992-01-12 18:00:00,-12.65,-12.46
1992-01-12 21:00:00,-12.39,-12.20
1992-01-13 00:00:00,-12.71,-12.49
1992-01-13 03:00:00,-11.96,-11.77
1992-01-13 06:00:00,-13.17,-12.92
1992-01-13 09:00:00,-12.68,-12.54
1992-01-13 12:00:00,-13.37,-13.13
1992-01-13 15:00:00,-14.58,-14.35
1992-01-13 18:00:00,-14.37,-14.19
1992-01-13 21:00:00,-13.50,-13.33
1992-01-14 00:00:00,-12.80,-12.55
1992-01-14 03:00:00,-12.39,-12.15
1992-01-14 06:00:00,-5.41,-5.77
1992-01-14 09:00:00,-2.27,-2.35
1992-01-14 12:00:00,-2.28,-2.33
1992-01-14 15:00:00,-2.71,-2.71
1992-01-14 18:00:00,-2.28,-2.32
1992-01-14 21:00:00,-3.92,-3.87
1992-01-15 00:00:00,-5.98,-5.88
1992-01-15 03:00:00,-8.16,-8.01
1992-01-15 06:00:00,-7.58,-8.36
1992-01-15 09:00:00,-8.21,-8.14
1992-01-15 12:00:00,-7.88,-7.62
1992-01-15 15:00:00,-7.49,-7.39
1992-01-15 18:00:00,-8.37,-8.23
1992-01-15 21:00:00,-10.83,-10.64
1992-01-16 00:00:00,-11.96,-11.75
1992-01-16 03:00:00,-11.96,-11.77
1992-01-16 06:00:00,-12.16,-11.96
1992-01-16 09:00:00,-12.41,-12.19
1992-01-16 12:00:00,-12.78,-12.54
1992-01-16 15:00:00,-13.63,-13.38
1992-01-16 18:00:00,-13.98,-13.74
1992-01-16 21:00:00,-13.81,-13.59
1992-01-17 00:00:00,-12.25,-12.04
1992-01-17 03:00:00,-11.96,-11.74
1992-01-17 06:00:00,-11.95,-11.75
1992-01-17 09:00:00,-11.93,-11.72
1992-01-17 12:00:00,-11.82,-11.41
1992-01-17 15:00:00,-10.86,-10.68
1992-01-17 18:00:00,-10.11,-9.93
1992-01-17 21:00:00,-9.44,-9.29
1992-01-18 00:00:00,-6.73,-8.64
1992-01-18 03:00:00,-8.17,-8.09
1992-01-18 06:00:00,-8.13,-8.03
1992-01-18 09:00:00,-9.22,-9.07
1992-01-18 12:00:00,-11.32,-11.21
1992-01-18 15:00:00,-10.61,-10.60
1992-01-18 18:00:00,-10.13,-10.06
1992-01-18 21:00:00,-10.80,-10.77
1992-01-19 00:00:00,-10.33,-10.29
1992-01-19 03:00:00,-10.10,-10.15
1992-01-19 06:00:00,-9.08,-8.97
1992-01-19 09:00:00,-9.24,-9.13
1992-01-19 12:00:00,-8.91,-8.90
1992-01-19 15:00:00,-6.61,-6.64
1992-01-19 18:00:00,-5.41,-5.45
1992-01-19 21:00:00,-5.60,-5.67
1992-01-20 00:00:00,-0.86,-1.05
1992-01-20 03:00:00,-0.30,-0.51
1992-01-20 06:00:00,-1.37,-1.55
1992-01-20 09:00:00,-0.49,-0.66
1992-01-20 12:00:00,-0.88,-1.08
1992-01-20 15:00:00,-0.25,-0.51
1992-01-20 18:00:00,1.06,0.73
1992-01-20 21:00:00,-0.13,-0.19
1992-01-21 00:00:00,-2.25,-2.38
1992-01-21 03:00:00,0.28,0.05
1992-01-21 06:00:00,1.38,1.07
1992-01-21 09:00:00,0.02,-0.09
1992-01-21 12:00:00,-1.28,-1.48
1992-01-21 15:00:00,-0.18,-0.40
1992-01-21 18:00:00,-0.63,-0.80
1992-01-21 21:00:00,-0.39,-0.58
1992-01-22 00:00:00,1.27,1.03
1992-01-22 03:00:00,1.29,0.73
1992-01-22 06:00:00,0.83,0.02
1992-01-22 09:00:00,0.23,-0.13
1992-01-22 12:00:00,-0.14,-0.35
1992-01-22 15:00:00,-0.86,-1.02
1992-01-22 18:00:00,-1.22,-1.33
1992-01-22 21:00:00,-2.95,-3.00
1992-01-23 00:00:00,-2.51,-2.58
1992-01-23 03:00:00,-3.38,-3.43
1992-01-23 06:00:00,-4.40,-4.43
1992-01-23 09:00:00,-4.66,-4.69
1992-01-23 12:00:00,-3.04,-3.13
1992-01-23 15:00:00,-0.88,-0.99
1992-01-23 18:00:00,-1.84,-1.92
1992-01-23 21:00:00,-1.52,-1.63
1992-01-24 00:00:00,-1.33,-1.42
1992-01-24 03:00:00,-1.76,-1.90
1992-01-24 06:00:00,-2.86,-2.92
1992-01-24 09:00:00,-3.28,-3.35
1992-01-24 12:00:00,-2.01,-2.12
1992-01-24 15:00:00,-0.21,-0.39
1992-01-24 18:00:00,-0.14,-0.27
1992-01-24 21:00:00,-0.91,-1.02
1992-01-25 00:00:00,-0.58,-0.71
1992-01-25 03:00:00,-0.80,-0.87
1992-01-25 06:00:00,-2.07,-2.15
1992-01-25 09:00:00,-1.32,-1.45
1992-01-25 12:00:00,-1.42,-1.50
1992-01-25 15:00:00,-1.47,-1.58
1992-01-25 18:00:00,-1.39,-1.46
1992-01-25 21:00:00,-2.37,-2.41
1992-01-26 00:00:00,-3.87,-3.81
1992-01-26 03:00:00,-6.69,-6.55
1992-01-26 06:00:00,-7.74,-7.63
1992-01-26 09:00:00,-7.86,-7.86
1992-01-26 12:00:00,-6.66,-6.65
1992-01-26 15:00:00,-4.23,-4.27
1992-01-26 18:00:00,-3.85,-3.89
1992-01-26 21:00:00,-4.14,-4.17
1992-01-27 00:00:00,-2.41,-2.53
1992-01-27 03:00:00,-1.84,-2.04
1992-01-27 06:00:00,-1.05,-1.23
1992-01-27 09:00:00,-0.32,-0.40
1992-01-27 12:00:00,0.34,0.19
1992-01-27 15:00:00,1.56,0.97
1992-01-27 18:00:00,2.19,1.73
1992-01-27 21:00:00,1.28,0.83
1992-01-28 00:00:00,1.45,0.46
1992-01-28 03:00:00,0.35,-0.06
1992-01-28 06:00:00,-0.54,-1.17
1992-01-28 09:00:00,-0.18,-0.99
1992-01-28 12:00:00,-2.59,-3.16
1992-01-28 15:00:00,-5.21,-5.37
1992-01-28 18:00:00,-6.37,-6.44
1992-01-28 21:00:00,-7.38,-7.41
1992-01-29 00:00:00,-7.82,-7.80
1992-01-29 03:00:00,-8.90,-8.82
1992-01-29 06:00:00,-8.67,-8.59
1992-01-29 09:00:00,-9.13,-9.03
1992-01-29 12:00:00,-8.47,-8.45
1992-01-29 15:00:00,-7.34,-7.34
1992-01-29 18:00:00,-4.66,-4.78
1992-01-29 21:00:00,-0.20,-0.42
1992-01-30 00:00:00,1.08,0.69
1992-01-30 03:00:00,1.77,0.78
1992-01-30 06:00:00,0.86,0.03
1992-01-30 09:00:00,0.50,0.12
1992-01-30 12:00:00,0.95,0.59
1992-01-30 15:00:00,0.29,0.03
1992-01-30 18:00:00,-0.81,-0.99
1992-01-30 21:00:00,-1.21,-1.33
1992-01-31 00:00:00,-1.02,-1.16
1992-01-31 03:00:00,-0.96,-1.11
1992-01-31 06:00:00,-1.31,-1.46
1992-01-31 09:00:00,-1.04,-1.18
1992-01-31 12:00:00,-0.70,-0.86
1992-01-31 15:00:00,-0.43,-0.63
1992-01-31 18:00:00,-0.36,-0.63
1992-01-31 21:00:00,-2.28,-2.35
1992-02-01 00:00:00,-3.71,-3.73
1992-02-01 03:00:00,-4.72,-4.74
1992-02-01 06:00:00,-4.04,-4.12
1992-02-01 09:00:00,-2.80,-2.88
1992-02-01 12:00:00,-1.86,-1.95
1992-02-01 15:00:00,-2.14,-2.21
1992-02-01 18:00:00,-2.58,-2.64
1992-02-01 21:00:00,-3.74,-3.71
1992-02-02 00:00:00,-4.04,-4.09
1992-02-02 03:00:00,-2.27,-2.39
1992-02-02 06:00:00,-2.27,-2.36
1992-02-02 09:00:00,-2.07,-2.14
1992-02-02 12:00:00,-3.27,-3.25
1992-02-02 15:00:00,-5.13,-5.08
1992-02-02 18:00:00,-5.66,-5.58
1992-02-02 21:00:00,-6.02,-5.90
1992-02-03 00:00:00,-5.68,-5.65
1992-02-03 03:00:00,-6.53,-6.45
1992-02-03 06:00:00,-8.30,-8.10
1992-02-03 09:00:00,-10.64,-10.61
1992-02-03 12:00:00,-8.36,-8.37
1992-02-03 15:00:00,-8.65,-8.67
1992-02-03 18:00:00,-9.49,-9.34
1992-02-03 21:00:00,-9.81,-9.79
1992-02-04 00:00:00,-7.30,-7.27
1992-02-04 03:00:00,-7.42,-7.40
1992-02-04 06:00:00,-8.19,-8.06
1992-02-04 09:00:00,-9.72,-9.66
1992-02-04 12:00:00,-8.03,-8.10
1992-02-04 15:00:00,-7.87,-7.78
1992-02-04 18:00:00,-8.92,-8.76
1992-02-04 21:00:00,-10.31,-10.09
1992-02-05 00:00:00,-12.04,-11.82
1992-02-05 03:00:00,-13.83,-13.71
1992-02-05 06:00:00,-12.97,-12.91
1992-02-05 09:00:00,-13.33,-13.14
1992-02-05 12:00:00,-12.68,-12.62
1992-02-05 15:00:00,-10.92,-10.83
1992-02-05 18:00:00,-10.92,-10.76
1992-02-05 21:00:00,-12.76,-12.51
1992-02-06 00:00:00,-14.55,-14.29
1992-02-06 03:00:00,-14.25,-14.04
1992-02-06 06:00:00,-13.38,-13.19
1992-02-06 09:00:00,-16.13,-15.89
1992-02-06 12:00:00,-14.39,-14.22
1992-02-06 15:00:00,-12.87,-12.72
1992-02-06 18:00:00,-12.70,-12.43
1992-02-06 21:00:00,-14.62,-14.32
1992-02-07 00:00:00,-14.98,-14.81
1992-02-07 03:00:00,-5.14,-5.29
1992-02-07 06:00:00,-2.62,-2.71
1992-02-07 09:00:00,-3.65,-3.67
1992-02-07 12:00:00,0.35,0.17
1992-02-07 15:00:00,-0.28,-0.34
1992-02-07 18:00:00,-1.37,-1.39
1992-02-07 21:00:00,-3.23,-3.08
1992-02-08 00:00:00,-5.55,-5.38
1992-02-08 03:00:00,-6.36,-6.16
1992-02-08 06:00:00,-5.41,-5.31
1992-02-08 09:00:00,-5.75,-5.70
1992-02-08 12:00:00,-5.77,-5.54
1992-02-08 15:00:00,-6.08,-6.02
1992-02-08 18:00:00,-6.79,-6.79
1992-02-08 21:00:00,-7.09,-7.01
1992-02-09 00:00:00,-7.72,-7.63
1992-02-09 03:00:00,-7.73,-7.65
1992-02-09 06:00:00,-9.35,-9.24
1992-02-09 09:00:00,-9.09,-9.18
1992-02-09 12:00:00,-6.62,-6.68
1992-02-09 15:00:00,-5.83,-5.84
1992-02-09 18:00:00,-4.19,-4.21
1992-02-09 21:00:00,-2.93,-3.09
1992-02-10 00:00:00,-1.48,-1.69
1992-02-10 03:00:00,-2.41,-2.44
1992-02-10 06:00:00,-5.28,-5.27
1992-02-10 09:00:00,-5.22,-5.28
1992-02-10 12:00:00,-4.62,-4.73
1992-02-10 15:00:00,-2.34,-2.41
1992-02-10 18:00:00,-2.17,-2.22
1992-02-10 21:00:00,-4.41,-4.36
1992-02-11 00:00:00,-5.62,-5.63
1992-02-11 03:00:00,-6.02,-6.05
1992-02-11 06:00:00,-6.00,-6.03
1992-02-11 09:00:00,-6.10,-6.04
1992-02-11 12:00:00,-6.92,-6.79
1992-02-11 15:00:00,-7.35,-7.16
1992-02-11 18:00:00,-8.11,-7.96
1992-02-11 21:00:00,-8.13,-8.07
1992-02-12 00:00:00,-4.35,-4.45
1992-02-12 03:00:00,-5.12,-5.10
1992-02-12 06:00:00,-5.97,-5.95
1992-02-12 09:00:00,-7.36,-7.29
1992-02-12 12:00:00,-8.34,-8.23
1992-02-12 15:00:00,-9.56,-9.43
1992-02-12 18:00:00,-10.79,-10.63
1992-02-12 21:00:00,-12.21,-12.04
1992-02-13 00:00:00,-13.89,-13.66
1992-02-13 03:00:00,-14.46,-14.27
1992-02-13 06:00:00,-14.79,-14.51
1992-02-13 09:00:00,-14.65,-14.41
1992-02-13 12:00:00,-14.94,-14.84
1992-02-13 15:00:00,-16.03,-15.88
1992-02-13 18:00:00,-16.72,-16.46
1992-02-13 21:00:00,-16.82,-16.61
1992-02-14 00:00:00,-15.43,-15.28
1992-02-14 03:00:00,-15.18,-15.09
1992-02-14 06:00:00,-13.13,-12.98
1992-02-14 09:00:00,-13.19,-13.04
1992-02-14 12:00:00,-13.07,-12.89
1992-02-14 15:00:00,-12.68,-12.52
1992-02-14 18:00:00,-12.08,-11.92
1992-02-14 21:00:00,-12.16,-11.98
1992-02-15 00:00:00,-14.64,-14.48
1992-02-15 03:00:00,-13.98,-13.94
1992-02-15 06:00:00,-13.91,-13.80
1992-02-15 09:00:00,-14.14,-14.02
1992-02-15 12:00:00,-13.22,-13.21
1992-02-15 15:00:00,-11.18,-11.03
1992-02-15 18:00:00,-10.49,-10.34
1992-02-15 21:00:00,-10.97,-10.78
1992-02-16 00:00:00,-11.75,-11.56
1992-02-16 03:00:00,-14.18,-13.99
1992-02-16 06:00:00,-13.61,-13.58
1992-02-16 09:00:00,-13.35,-13.31
1992-02-16 12:00:00,-8.45,-8.40
1992-02-16 15:00:00,-7.99,-7.97
1992-02-16 18:00:00,-8.56,-8.61
1992-02-16 21:00:00,-6.75,-6.88
1992-02-17 00:00:00,-7.25,-7.15
1992-02-17 03:00:00,-6.25,-6.24
1992-02-17 06:00:00,-7.61,-7.52
1992-02-17 09:00:00,-7.66,-7.59
1992-02-17 12:00:00,-7.46,-7.42
1992-02-17 15:00:00,-7.32,-7.29
1992-02-17 18:00:00,-7.23,-7.14
1992-02-17 21:00:00,-6.63,-6.57
1992-02-18 00:00:00,-6.58,-6.49
1992-02-18 03:00:00,-6.38,-6.37
1992-02-18 06:00:00,-5.50,-5.52
1992-02-18 09:00:00,-6.08,-5.99
1992-02-18 12:00:00,-7.96,-7.78
1992-02-18 15:00:00,-8.44,-8.35
1992-02-18 18:00:00,-7.48,-7.40
1992-02-18 21:00:00,-7.75,-7.59
1992-02-19 00:00:00,-8.14,-8.09
1992-02-19 03:00:00,-7.39,-7.26
1992-02-19 06:00:00,-6.07,-6.07
1992-02-19 09:00:00,-6.19,-6.15
1992-02-19 12:00:00,-6.54,-6.53
1992-02-19 15:00:00,-7.19,-7.16
1992-02-19 18:00:00,-7.77,-7.70
1992-02-19 21:00:00,-9.09,-9.01
1992-02-20 00:00:00,-9.48,-9.39
1992-02-20 03:00:00,-9.55,-9.49
1992-02-20 06:00:00,-11.85,-11.74
1992-02-20 09:00:00,-12.03,-11.97
1992-02-20 12:00:00,-10.13,-10.09
1992-02-20 15:00:00,-8.87,-8.79
1992-02-20 18:00:00,-6.06,-6.17
1992-02-20 21:00:00,-3.75,-3.68
1992-02-21 00:00:00,-4.46,-4.41
1992-02-21 03:00:00,-3.41,-3.46
1992-02-21 06:00:00,-2.08,-2.38
1992-02-21 09:00:00,-3.04,-3.03
1992-02-21 12:00:00,-3.81,-3.82
1992-02-21 15:00:00,-3.55,-3.55
1992-02-21 18:00:00,-5.28,-5.21
1992-02-21 21:00:00,-6.82,-6.69
1992-02-22 00:00:00,-7.30,-7.19
1992-02-22 03:00:00,-6.83,-6.74
1992-02-22 06:00:00,-6.26,-6.25
1992-02-22 09:00:00,-7.44,-7.26
1992-02-22 12:00:00,-7.58,-7.48
1992-02-22 15:00:00,-7.68,-7.54
1992-02-22 18:00:00,-8.39,-8.26
1992-02-22 21:00:00,-5.36,-5.54
1992-02-23 00:00:00,-4.95,-4.91
1992-02-23 03:00:00,-6.10,-6.02
1992-02-23 06:00:00,-6.79,-6.72
1992-02-23 09:00:00,-6.83,-6.77
1992-02-23 12:00:00,-7.08,-6.99
1992-02-23 15:00:00,-7.70,-7.60
1992-02-23 18:00:00,-8.23,-8.16
1992-02-23 21:00:00,-8.21,-8.13
1992-02-24 00:00:00,-8.25,-8.17
1992-02-24 03:00:00,-8.35,-7.90
1992-02-24 06:00:00,-7.48,-7.38
1992-02-24 09:00:00,-7.32,-7.25
1992-02-24 12:00:00,-7.42,-7.35
1992-02-24 15:00:00,-7.78,-7.60
1992-02-24 18:00:00,-9.19,-9.05
1992-02-24 21:00:00,-7.13,-7.12
1992-02-25 00:00:00,-5.56,-5.53
1992-02-25 03:00:00,-6.25,-6.13
1992-02-25 06:00:00,-6.73,-6.65
1992-02-25 09:00:00,-6.88,-6.78
1992-02-25 12:00:00,-6.63,-6.57
1992-02-25 15:00:00,-5.55,-5.51
1992-02-25 18:00:00,-3.95,-3.96
1992-02-25 21:00:00,-3.99,-3.97
1992-02-26 00:00:00,-5.09,-5.00
1992-02-26 03:00:00,-5.52,-5.49
1992-02-26 06:00:00,-5.05,-5.09
1992-02-26 09:00:00,-2.37,-2.60
1992-02-26 12:00:00,-1.78,-1.87
1992-02-26 15:00:00,-2.22,-2.24
1992-02-26 18:00:00,-3.48,-3.48
1992-02-26 21:00:00,-6.53,-6.60
1992-02-27 00:00:00,-5.57,-5.58
1992-02-27 03:00:00,-7.08,-7.06
1992-02-27 06:00:00,-3.25,-3.34
1992-02-27 09:00:00,-3.98,-4.01
1992-02-27 12:00:00,-5.01,-5.04
1992-02-27 15:00:00,-5.60,-5.59
1992-02-27 18:00:00,-6.05,-6.02
1992-02-27 21:00:00,-8.59,-8.49
1992-02-28 00:00:00,-9.00,-9.00
1992-02-28 03:00:00,-8.02,-7.89
1992-02-28 06:00:00,-8.27,-8.19
1992-02-28 09:00:00,-7.47,-7.41
1992-02-28 12:00:00,-6.32,-6.25
1992-02-28 15:00:00,-4.22,-4.33
1992-02-28 18:00:00,-5.02,-4.98
1992-02-28 21:00:00,-5.67,-5.61
1992-02-29 00:00:00,-5.91,-5.83
1992-02-29 03:00:00,-5.14,-5.15
1992-02-29 06:00:00,-3.61,-3.62
1992-02-29 09:00:00,-2.66,-2.81
1992-02-29 12:00:00,-1.49,-1.54
1992-02-29 15:00:00,-1.65,-1.70
1992-02-29 18:00:00,-1.37,-1.47
1992-02-29 21:00:00,-0.27,-0.42
1992-03-01 00:00:00,0.09,0.00
1992-03-01 03:00:00,-0.42,-0.52
1992-03-01 06:00:00,-0.62,-0.72
1992-03-01 09:00:00,0.07,-0.08
1992-03-01 12:00:00,-1.09,-1.13
1992-03-01 15:00:00,-2.64,-2.46
1992-03-01 18:00:00,-2.59,-2.67
1992-03-01 21:00:00,-2.79,-2.84
1992-03-02 00:00:00,-3.35,-3.35
1992-03-02 03:00:00,-4.82,-4.80
1992-03-02 06:00:00,-6.46,-6.51
1992-03-02 09:00:00,-7.56,-7.68
1992-03-02 12:00:00,-6.47,-6.53
1992-03-02 15:00:00,-5.85,-5.89
1992-03-02 18:00:00,-5.97,-5.88
1992-03-02 21:00:00,-6.93,-6.76
1992-03-03 00:00:00,-7.71,-7.58
1992-03-03 03:00:00,-8.15,-8.03
1992-03-03 06:00:00,-8.47,-8.27
1992-03-03 09:00:00,-8.65,-8.49
1992-03-03 12:00:00,-7.94,-7.69
1992-03-03 15:00:00,-8.18,-7.99
1992-03-03 18:00:00,-8.97,-8.80
1992-03-03 21:00:00,-9.56,-9.32
1992-03-04 00:00:00,-11.18,-10.84
1992-03-04 03:00:00,-10.77,-10.78
1992-03-04 06:00:00,-6.96,-7.08
1992-03-04 09:00:00,-5.81,-5.94
1992-03-04 12:00:00,-3.90,-4.12
1992-03-04 15:00:00,-4.16,-4.20
1992-03-04 18:00:00,-4.67,-4.66
1992-03-04 21:00:00,-4.58,-4.55
1992-03-05 00:00:00,-6.16,-6.02
1992-03-05 03:00:00,-7.73,-7.85
1992-03-05 06:00:00,-2.43,-2.54
1992-03-05 09:00:00,0.18,0.04
1992-03-05 12:00:00,0.94,0.81
1992-03-05 15:00:00,1.05,0.92
1992-03-05 18:00:00,0.70,0.56
1992-03-05 21:00:00,0.72,0.51
1992-03-06 00:00:00,0.53,0.30
1992-03-06 03:00:00,0.09,-0.04
1992-03-06 06:00:00,0.16,0.08
1992-03-06 09:00:00,1.18,1.01
1992-03-06 12:00:00,0.75,0.70
1992-03-06 15:00:00,-0.67,-0.80
1992-03-06 18:00:00,0.77,0.68
1992-03-06 21:00:00,-1.09,-1.33
1992-03-07 00:00:00,-1.39,-1.51
1992-03-07 03:00:00,-0.97,-1.14
1992-03-07 06:00:00,-3.22,-3.23
1992-03-07 09:00:00,-4.30,-4.33
1992-03-07 12:00:00,-4.30,-4.34
1992-03-07 15:00:00,-4.07,-4.09
1992-03-07 18:00:00,-3.48,-3.58
1992-03-07 21:00:00,-3.62,-3.66
1992-03-08 00:00:00,-3.33,-3.42
1992-03-08 03:00:00,-2.50,-2.59
1992-03-08 06:00:00,-3.21,-3.22
1992-03-08 09:00:00,-4.03,-4.10
1992-03-08 12:00:00,-2.83,-2.95
1992-03-08 15:00:00,-3.93,-3.86
1992-03-08 18:00:00,-2.97,-3.23
1992-03-08 21:00:00,-1.15,-1.39
1992-03-09 00:00:00,-0.20,-0.54
1992-03-09 03:00:00,3.55,3.16
1992-03-09 06:00:00,1.61,1.54
1992-03-09 09:00:00,0.41,0.16
1992-03-09 12:00:00,3.26,3.02
1992-03-09 15:00:00,1.71,1.77
1992-03-09 18:00:00,-0.72,-0.79
1992-03-09 21:00:00,-1.55,-1.63
1992-03-10 00:00:00,-1.50,-1.59
1992-03-10 03:00:00,-2.30,-2.37
1992-03-10 06:00:00,-2.75,-2.87
1992-03-10 09:00:00,-3.84,-3.82
1992-03-10 12:00:00,-2.80,-2.88
1992-03-10 15:00:00,-3.39,-3.24
1992-03-10 18:00:00,-3.95,-3.94
1992-03-10 21:00:00,-3.89,-3.84
1992-03-11 00:00:00,-5.96,-5.98
1992-03-11 03:00:00,-4.91,-4.84
1992-03-11 06:00:00,-4.30,-4.35
1992-03-11 09:00:00,-4.23,-4.19
1992-03-11 12:00:00,-4.37,-4.37
1992-03-11 15:00:00,-4.77,-4.71
1992-03-11 18:00:00,-7.28,-7.18
1992-03-11 21:00:00,-8.73,-8.57
1992-03-12 00:00:00,-9.53,-9.38
1992-03-12 03:00:00,-9.59,-9.45
1992-03-12 06:00:00,-10.05,-9.89
1992-03-12 09:00:00,-10.05,-9.97
1992-03-12 12:00:00,-10.94,-10.79
1992-03-12 15:00:00,-11.47,-11.25
1992-03-12 18:00:00,-11.10,-10.91
1992-03-12 21:00:00,-8.97,-8.89
1992-03-13 00:00:00,-7.90,-7.79
1992-03-13 03:00:00,-7.63,-7.53
1992-03-13 06:00:00,-7.50,-7.39
1992-03-13 09:00:00,-6.90,-6.81
1992-03-13 12:00:00,-6.31,-6.21
1992-03-13 15:00:00,-6.52,-6.41
1992-03-13 18:00:00,-6.83,-6.71
1992-03-13 21:00:00,-6.82,-6.70
1992-03-14 00:00:00,-7.18,-7.00
1992-03-14 03:00:00,-8.22,-7.72
1992-03-14 06:00:00,-11.64,-11.38
1992-03-14 09:00:00,-12.88,-12.88
1992-03-14 12:00:00,-10.78,-10.38
1992-03-14 15:00:00,-10.73,-10.51
1992-03-14 18:00:00,-11.72,-12.12
1992-03-14 21:00:00,-12.34,-12.84
1992-03-15 00:00:00,-12.23,-12.66
1992-03-15 03:00:00,-9.90,-10.26
1992-03-15 06:00:00,-8.95,-9.02
1992-03-15 09:00:00,-6.17,-6.59
1992-03-15 12:00:00,-5.28,-5.42
1992-03-15 15:00:00,-5.70,-5.66
1992-03-15 18:00:00,-6.64,-6.57
1992-03-15 21:00:00,-6.96,-6.88
1992-03-16 00:00:00,-5.61,-5.60
1992-03-16 03:00:00,-6.34,-6.27
1992-03-16 06:00:00,-7.59,-7.51
1992-03-16 09:00:00,-8.25,-8.16
1992-03-16 12:00:00,-8.13,-8.05
1992-03-16 15:00:00,-8.59,-8.45
1992-03-16 18:00:00,-9.17,-9.05
1992-03-16 21:00:00,-9.95,-9.77
1992-03-17 00:00:00,-11.57,-11.47
1992-03-17 03:00:00,-9.78,-9.77
1992-03-17 06:00:00,-10.07,-9.91
1992-03-17 09:00:00,-9.28,-9.16
1992-03-17 12:00:00,-3.81,-4.06
1992-03-17 15:00:00,-2.15,-2.17
1992-03-17 18:00:00,-2.73,-2.76
1992-03-17 21:00:00,-2.95,-2.97
1992-03-18 00:00:00,-2.72,-2.81
1992-03-18 03:00:00,-3.85,-3.79
1992-03-18 06:00:00,-3.04,-3.25
1992-03-18 09:00:00,-1.37,-1.43
1992-03-18 12:00:00,-1.55,-1.59
1992-03-18 15:00:00,-1.69,-1.70
1992-03-18 18:00:00,-2.38,-2.42
1992-03-18 21:00:00,-2.60,-2.62
1992-03-19 00:00:00,-3.18,-3.21
1992-03-19 03:00:00,-3.24,-3.27
1992-03-19 06:00:00,-3.58,-3.57
1992-03-19 09:00:00,-4.00,-4.16
1992-03-19 12:00:00,-2.86,-2.94
1992-03-19 15:00:00,-3.32,-3.25
1992-03-19 18:00:00,-4.20,-4.06
1992-03-19 21:00:00,-4.23,-4.27
1992-03-20 00:00:00,-3.64,-3.69
1992-03-20 03:00:00,-4.50,-4.51
1992-03-20 06:00:00,-4.56,-4.54
1992-03-20 09:00:00,-5.31,-5.31
1992-03-20 12:00:00,-4.85,-4.87
1992-03-20 15:00:00,-5.15,-5.09
1992-03-20 18:00:00,-6.04,-5.99
1992-03-20 21:00:00,-6.64,-6.61
1992-03-21 00:00:00,-6.74,-6.70
1992-03-21 03:00:00,-7.19,-7.17
1992-03-21 06:00:00,-6.73,-6.74
1992-03-21 09:00:00,-5.90,-5.96
1992-03-21 12:00:00,-5.77,-5.75
1992-03-21 15:00:00,-5.92,-5.88
1992-03-21 18:00:00,-8.09,-8.05
1992-03-21 21:00:00,-11.08,-11.03
1992-03-22 00:00:00,-11.00,-11.15
1992-03-22 03:00:00,-11.36,-11.32
1992-03-22 06:00:00,-12.01,-12.06
1992-03-22 09:00:00,-9.60,-9.82
1992-03-22 12:00:00,-8.50,-8.43
1992-03-22 15:00:00,-6.92,-6.80
1992-03-22 18:00:00,-7.89,-7.73
1992-03-22 21:00:00,-7.88,-7.73
1992-03-23 00:00:00,-8.53,-8.27
1992-03-23 03:00:00,-9.22,-9.02
1992-03-23 06:00:00,-9.64,-9.46
1992-03-23 09:00:00,-11.35,-11.49
1992-03-23 12:00:00,-8.35,-8.38
1992-03-23 15:00:00,-8.33,-8.20
1992-03-23 18:00:00,-9.18,-9.14
1992-03-23 21:00:00,-10.37,-10.38
1992-03-24 00:00:00,-11.95,-11.91
1992-03-24 03:00:00,-12.53,-12.49
1992-03-24 06:00:00,-13.09,-13.00
1992-03-24 09:00:00,-11.86,-11.92
1992-03-24 12:00:00,-10.09,-10.04
1992-03-24 15:00:00,-9.22,-9.07
1992-03-24 18:00:00,-10.45,-10.34
1992-03-24 21:00:00,-9.16,-9.07
1992-03-25 00:00:00,-9.47,-9.34
1992-03-25 03:00:00,-10.48,-10.35
1992-03-25 06:00:00,-11.07,-10.94
1992-03-25 09:00:00,-10.26,-10.22
1992-03-25 12:00:00,-9.58,-9.51
1992-03-25 15:00:00,-9.57,-9.36
1992-03-25 18:00:00,-11.92,-11.74
1992-03-25 21:00:00,-14.23,-14.12
1992-03-26 00:00:00,-14.83,-14.68
1992-03-26 03:00:00,-14.36,-14.29
1992-03-26 06:00:00,-14.68,-14.65
1992-03-26 09:00:00,-11.86,-11.72
1992-03-26 12:00:00,-9.58,-9.53
1992-03-26 15:00:00,-8.85,-8.58
1992-03-26 18:00:00,-10.43,-10.22
1992-03-26 21:00:00,-10.75,-10.63
1992-03-27 00:00:00,-11.73,-11.70
1992-03-27 03:00:00,-13.31,-13.23
1992-03-27 06:00:00,-14.61,-14.61
1992-03-27 09:00:00,-13.60,-13.75
1992-03-27 12:00:00,-10.33,-10.45
1992-03-27 15:00:00,-10.94,-10.77
1992-03-27 18:00:00,-11.87,-11.76
1992-03-27 21:00:00,-13.17,-13.06
1992-03-28 00:00:00,-13.58,-13.53
1992-03-28 03:00:00,-14.87,-14.77
1992-03-28 06:00:00,-14.56,-14.54
1992-03-28 09:00:00,-13.40,-13.56
1992-03-28 12:00:00,-10.18,-10.28
1992-03-28 15:00:00,-9.39,-9.28
1992-03-28 18:00:00,-10.10,-10.02
1992-03-28 21:00:00,-9.96,-9.91
1992-03-29 00:00:00,-10.95,-10.89
1992-03-29 03:00:00,-11.60,-11.43
1992-03-29 06:00:00,-15.11,-14.94
1992-03-29 09:00:00,-15.13,-15.17
1992-03-29 12:00:00,-12.76,-12.81
1992-03-29 15:00:00,-13.53,-13.16
1992-03-29 18:00:00,-17.02,-16.78
1992-03-29 21:00:00,-17.13,-17.02
1992-03-30 00:00:00,-15.94,-15.73
1992-03-30 03:00:00,-12.69,-12.66
1992-03-30 06:00:00,-11.06,-10.90
1992-03-30 09:00:00,-10.29,-10.14
1992-03-30 12:00:00,-9.75,-9.60
1992-03-30 15:00:00,-9.57,-9.37
1992-03-30 18:00:00,-9.77,-9.56
1992-03-30 21:00:00,-10.03,-9.86
1992-03-31 00:00:00,-11.04,-10.90
1992-03-31 03:00:00,-13.07,-12.89
1992-03-31 06:00:00,-14.18,-13.96
1992-03-31 09:00:00,-14.33,-14.12
1992-03-31 12:00:00,-13.75,-13.54
1992-03-31 15:00:00,-13.54,-13.35
1992-03-31 18:00:00,-13.75,-13.49
1992-03-31 21:00:00,-14.15,-13.86
1992-04-01 00:00:00,-14.39,-14.10
1992-04-01 03:00:00,-14.41,-14.13
1992-04-01 06:00:00,-14.30,-14.03
1992-04-01 09:00:00,-13.62,-13.39
1992-04-01 12:00:00,-13.01,-12.78
1992-04-01 15:00:00,-12.89,-12.64
1992-04-01 18:00:00,-13.07,-12.83
1992-04-01 21:00:00,-13.46,-13.20
1992-04-02 00:00:00,-13.81,-13.55
1992-04-02 03:00:00,-13.88,-13.67
1992-04-02 06:00:00,-13.16,-12.93